Flag for Brazil Weather past 2 weeks in Cuiabá, Mato Grosso, Brazil

77 °F

Broken clouds.

Feels Like: 78 °F
Forecast: 74 / 91 °F
Wind: 7 mph from South

Location: Cuiaba Aeroporto

Current Time: Nov 30, 2015 at 10:38:29 AM

Latest Report: Nov 30, 2015 at 10:00 AM

Visibility: N/A

Pressure: 30.01 "Hg

Humidity: 89%

Dew point: 73 °F

Location of CuiabáLocation

Historic Weather in Cuiabá — Graph


Cuiabá temperature yesterday

Maximum temperature yesterday: 93 °F (at 3:00 PM)
Minimum temperature yesterday: 77 °F (at 12:00 AM)
Average temperature yesterday: 81 °F

Past Weeks' High & Low Weather Summary

High99 °F (Nov 18, 4:00 PM)94% (Nov 21, 6:00 AM)29.98 "Hg (Nov 21, 6:00 AM)
Low72 °F (Nov 21, 4:00 AM)31% (Nov 18, 4:00 PM)29.62 "Hg (Nov 18, 4:00 PM)
Average84 °F67%29.79 "Hg
* Reported Nov 15 9:00 AM — Nov 30 9:00 AM, Cuiabá, Weather by CustomWeather, © 2015

Note: Actual official high and low records may vary slightly from our data, if they occured in-between our weather recording intervals... More about our weather records


Cuiabá weather history for previous 24 hours

Time TempWeatherWind HumidityBarometerVisibility
9:00 AM
Mon, Nov 30
75 °FPartly sunny.7 mph94%29.98 "HgN/A
8:00 AM75 °FPartly sunny.3 mph89%29.98 "HgN/A
7:00 AM73 °FLight rain. Passing clouds.7 mph94%29.98 "Hg4 mi
6:00 AM73 °FLight rain. Partly cloudy.5 mph94%29.95 "Hg3 mi
5:00 AM73 °FLight rain. Passing clouds.7 mph94%29.95 "Hg3 mi
4:00 AM75 °FLight rain. Partly cloudy.5 mph89%29.95 "Hg3 mi
3:00 AM75 °FThunderstorms. Partly cloudy.3 mph89%N/A3 mi
2:00 AM73 °FStrong thunderstorms. Partly cloudy.10 mph94%N/A1 mi
1:00 AM77 °FPassing clouds.6 mph83%29.95 "HgN/A
12:00 AM79 °FClear.6 mph79%29.95 "Hg10 mi
11:00 PM
Sun, Nov 29
79 °FClear.6 mph84%29.95 "Hg10 mi
10:00 PM77 °FPassing clouds.2 mph89%29.92 "HgN/A
9:00 PM79 °FPartly cloudy.5 mph79%29.89 "HgN/A
8:00 PM77 °FBroken clouds.9 mph83%29.86 "HgN/A
7:00 PM79 °FBroken clouds.13 mph84%29.83 "HgN/A
6:00 PM81 °FScattered showers. Broken clouds.7 mph74%N/AN/A
5:00 PM77 °FStrong thunderstorms. Partly sunny.20 mph79%29.80 "Hg1 mi
4:00 PM93 °FScattered clouds.2 mph47%29.80 "HgN/A
3:00 PM93 °FScattered clouds.3 mph49%29.83 "HgN/A
2:00 PM91 °FScattered clouds.6 mph52%29.86 "HgN/A
1:00 PM90 °FScattered clouds.6 mph59%29.89 "HgN/A
12:00 PM88 °FPartly sunny.9 mph62%29.92 "HgN/A
11:00 AM84 °FScattered clouds.8 mph70%29.95 "HgN/A
10:00 AM82 °FPartly sunny.5 mph74%29.95 "HgN/A
Weather by CustomWeather, © 2015

See weather overviewHow to use our weather pages